STARLINK-35832 (66495 NORAD) Tracking and Keplerian Element Data

This shows tracking and keplerian element data for the satellite.

Feedback or suggestion? Click here.




ElementValue
Catalog66495
NameSTARLINK-35832
Epoch Orbit663
Epoch Day353.68129246
Epoch Year2025
RAAN85.0548
Inclination43.0009
Eccentricity0.0001188
Argument of Perigee277.7437
Mean Anonmoly82.3285
Mean Motion15.40702451
Decay Rate0.00051102
L11 66495U 25263L 25353.68129246 .00051102 00000+0 12223-2 0 9994
L22 66495 43.0009 85.0548 0001188 277.7437 82.3285 15.40702451 6635



Live tracking and technical data element details for STARLINK-35832 (NORAD 66495). STARLINK-35832 can be tracked NOW for your location showing map with azimuth and elevation plus other details from your city location.







IsCatalogInMostPopularTable: catalog: 66495, numindb: 10
Update: records affected: 1



GetName: 66495 STARLINK-35832

Hit Count: updated at: Tue, 21 Apr 2026 19:19:52 GMT